Zurück zum Katalog

NOAA 16 DEB

AktivSSO
NORAD 42387·DEBRIS·🇺🇸 United States

Gestartet Sep 21, 2000 von Vandenberg Space Force Base

Loading…

Nächste Überflüge (nächste 24 Stunden)

TLE

AktuellSource: Space-Track

Epoche: Sep 12, 2026, 08:05 UTC

1 42387U 00055SF  26255.33705550  .00004280  00000-0  12336-2 0  9993
2 42387  98.8432  29.5315 0010150 338.9829  21.0943 14.45212686548245

Verfolge NOAA 16 DEB in Echtzeit mit AllMySat

Download on the App Store